Terminal Aerodrome Forecast
Issued by NWS Atlanta, GA

Home | Current Version | Previous Version | Text Only | Print | Product List | Glossary On
Versions: 1 2 3 4 5 6 7 8 9 10 11 12 13 14 15 16 17 18 19 20 21 22 23 24 25 26 27 28 29 30 31 32 33 34 35 36 37
000
FTUS42 KFFC 202324
TAFATL
TAF
KATL 202324Z 2100/2206 27004KT P6SM FEW250
     FM210400 33005KT P6SM FEW250
     FM211400 01005KT P6SM FEW250
     FM212000 04005KT P6SM FEW250
     FM220000 08006KT P6SM FEW250=

USA.gov is the U.S. government's official web portal to all federal, state and local government web resources and services.